[[{"header":{"parameterUnit":"m.s-1","parameterCategory":2,"la1":30.2992,"la2":30.254,"lo1":-89.0895,"lo2":-89.0443,"dy":0.0025,"dx":0.0025,"nx":19,"ny":19,"refTime":"2026-04-23T21:00:00:Z","depth":"0","parameterNumber":2,"parameterNumberName":"U-component_of_CURRENTS"},"data":[0,0,0,0.3117,0.3117,0.3078,0.3078,0.2969,0.2968,0,0,0,0,0,0,0,0,0,0,0,0.3119,0.3119,0.3117,0.3117,0.3078,0.3077,0.2969,0.2968,0,0,0,0,0,0,0,0,0,0,0,0.3119,0.3119,0.312,0.3117,0.3078,0.3077,0.2969,0.3006,0,0,0,0,0,0,0,0,0,0,0.3048,0.3067,0.3119,0.312,0.3117,0.3078,0.3077,0.3008,0.3003,0.298,0,0.2989,0,0.2994,0.2962,0.2962,0,0,0,0.3086,0.3071,0.3071,0.312,0.3117,0.3079,0.3087,0.3006,0.3001,0.2974,0.2988,0.2984,0.2992,0.2962,0.2962,0.2933,0.2933,0,0,0.3088,0.3095,0.3075,0.3069,0.3126,0.3088,0.3086,0.3003,0.2998,0.2987,0.2982,0.299,0.2961,0.2961,0.2932,0.2933,0,0,0,0.3115,0.3097,0.3099,0.3073,0.308,0.3088,0.3085,0.3001,0.3006,0.2981,0.2989,0.2961,0.296,0.2932,0.2932,0.3067,0,0,0,0.3115,0.3115,0.31,0.3102,0.3083,0.3049,0.3085,0.3011,0.3002,0.2989,0.2961,0.2959,0.2932,0.2932,0.3062,0.3075,0,0,0,0.3118,0.3115,0.3119,0.3103,0.3103,0.3051,0.3049,0.3009,0.3008,0.2962,0.2959,0.2931,0.2932,0.3058,0.3069,0.3076,0,0,0,0.3113,0.3127,0.3119,0.3132,0.3104,0.3092,0.3049,0.3027,0.2993,0.296,0.2932,0.2932,0.3057,0.3066,0.3073,0.2973,0.2978,0,0,0.3129,0.3129,0.3136,0.313,0.3147,0.3094,0.3108,0.305,0.2995,0.2948,0.2948,0.3064,0.3069,0.3075,0.3017,0.3021,0,0,0,0.314,0.3148,0.3151,0.3158,0.3146,0.3153,0.31,0.3097,0.3079,0.2986,0.3041,0.3038,0.3039,0.2972,0.2976,0.2792,0.2936,0.2936,0.2936,0.3141,0.3151,0.3169,0.3187,0.3189,0.3184,0.319,0.3167,0.3123,0.3152,0.3135,0.3205,0.3138,0.3138,0.2953,0.3141,0.3142,0.3142,0.3142,0.3168,0.318,0.3195,0.3218,0.3235,0.3244,0.3275,0.3276,0.3283,0.3246,0.3241,0.3099,0.315,0.295,0.3151,0.3149,0.3148,0.3147,0.3147,0.3167,0.318,0.3191,0.3227,0.3263,0.3291,0.3323,0.3353,0.3356,0.3373,0.3237,0.3232,0.3062,0.3366,0.3367,0.3367,0.3367,0.3367,0.3367,0.3166,0.3184,0.3192,0.3242,0.3251,0.3293,0.3352,0.3366,0.3354,0.3325,0.3324,0.3046,0.3271,0.3269,0.3369,0.3369,0.3368,0.3368,0.3368,0.3189,0.3176,0.3177,0.3179,0.3204,0.3161,0.3274,0.3258,0.3292,0.3258,0.3027,0.3286,0.3211,0.3205,0.3198,0.3274,0.3274,0.3274,0.3274,0.3179,0.3186,0.3124,0.3096,0.3093,0.3086,0.2958,0.2963,0.2932,0.2853,0.2888,0.2815,0.2827,0.2724,0.2729,0.271,0.2661,0.266,0.2659,0.319,0.3152,0.3079,0.3028,0.3011,0.2935,0.2705,0.2502,0.2515,0.2619,0.2658,0.2684,0.2563,0.2597,0.2424,0.2446,0.2411,0,0]},{"header":{"parameterUnit":"m.s-1","parameterCategory":2,"la1":30.2992,"la2":30.254,"lo1":-89.0895,"lo2":-89.0443,"dy":0.0025,"dx":0.0025,"nx":19,"ny":19,"refTime":"2026-04-23T21:00:00:Z","depth":"0","parameterNumber":3,"parameterNumberName":"V-component_of_CURRENTS"},"data":[0,0,0,0.0184,0.0185,0.025,0.025,0.0274,0.0274,0,0,0,0,0,0,0,0,0,0,0,0.0155,0.0156,0.0184,0.0186,0.025,0.025,0.0274,0.0274,0,0,0,0,0,0,0,0,0,0,0,0.0155,0.0156,0.0156,0.0186,0.025,0.025,0.0274,0.0238,0,0,0,0,0,0,0,0,0,0,0.0182,0.0166,0.0156,0.0156,0.0186,0.025,0.025,0.0237,0.0241,0.023,0,0.0243,0,0.0263,0.0275,0.0275,0,0,0,0.018,0.0163,0.0184,0.0156,0.0187,0.025,0.0219,0.024,0.0243,0.0234,0.0243,0.0245,0.0264,0.0275,0.0275,0.035,0.0351,0,0,0.0176,0.0163,0.0181,0.0186,0.0206,0.0217,0.0221,0.0242,0.0244,0.0243,0.0246,0.0264,0.0275,0.0275,0.0349,0.035,0,0,0,0.017,0.016,0.0181,0.0184,0.0204,0.0219,0.0224,0.0243,0.0251,0.0246,0.0264,0.0275,0.0275,0.0348,0.035,0.0514,0,0,0,0.0167,0.0157,0.0179,0.0171,0.0204,0.0232,0.0224,0.025,0.0253,0.0264,0.0275,0.0275,0.0348,0.0349,0.0508,0.0603,0,0,0,0.0152,0.0155,0.0165,0.0171,0.0203,0.0233,0.0242,0.0251,0.0264,0.0275,0.0275,0.0347,0.0349,0.0502,0.0592,0.0654,0,0,0,0.0133,0.0183,0.0164,0.0229,0.0202,0.0292,0.0243,0.0289,0.0306,0.0275,0.0348,0.0349,0.05,0.0585,0.0648,0.0675,0.0707,0,0,0.0195,0.019,0.0233,0.0219,0.0324,0.0283,0.0397,0.0381,0.0326,0.0333,0.0336,0.051,0.0591,0.0653,0.0776,0.0804,0,0,0,0.0254,0.0289,0.0315,0.0369,0.0406,0.0483,0.0459,0.0459,0.048,0.0345,0.0499,0.0545,0.0579,0.0581,0.0604,0.0479,0.0357,0.0357,0.0357,0.0331,0.0364,0.0458,0.0513,0.0568,0.0616,0.0674,0.0666,0.0579,0.0611,0.067,0.0822,0.0827,0.0844,0.0716,0.0646,0.0647,0.0648,0.0648,0.0469,0.054,0.0582,0.0682,0.0744,0.0832,0.0899,0.087,0.0925,0.0821,0.0844,0.0745,0.0879,0.0732,0.0658,0.0657,0.0655,0.0654,0.0653,0.0544,0.0586,0.0635,0.0779,0.0912,0.0982,0.1137,0.114,0.1087,0.1137,0.1069,0.1065,0.0941,0.1119,0.112,0.112,0.1121,0.1121,0.1122,0.0601,0.0658,0.0751,0.0889,0.0985,0.114,0.1278,0.1331,0.1333,0.1267,0.1265,0.0986,0.0964,0.0952,0.1133,0.1131,0.113,0.1129,0.1128,0.0696,0.0701,0.0851,0.094,0.1164,0.134,0.1447,0.1553,0.1566,0.1563,0.1251,0.1315,0.1261,0.124,0.1233,0.1476,0.1476,0.1476,0.1476,0.0733,0.0756,0.0931,0.1083,0.1284,0.1437,0.1646,0.1715,0.1558,0.1427,0.1324,0.1205,0.1196,0.1128,0.111,0.1094,0.1297,0.1297,0.1296,0.0779,0.0832,0.095,0.1103,0.1333,0.1534,0.173,0.181,0.1514,0.1273,0.1154,0.1161,0.0962,0.0958,0.0823,0.0807,0.077,0,0]}],[{"header":{"parameterUnit":"m.s-1","parameterCategory":2,"la1":30.2992,"la2":30.254,"lo1":-89.0895,"lo2":-89.0443,"dy":0.0025,"dx":0.0025,"nx":19,"ny":19,"refTime":"2026-04-23T21:00:00:Z","depth":"2","parameterNumber":2,"parameterNumberName":"U-component_of_CURRENTS"},"data":[0,0,0,0.2137,0.2141,0.2327,0.2328,0.2399,0.2399,0,0,0,0,0,0,0,0,0,0,0,0.2026,0.2026,0.2136,0.2142,0.2327,0.2328,0.2398,0.2399,0,0,0,0,0,0,0,0,0,0,0,0.2025,0.2026,0.2027,0.2142,0.2327,0.2328,0.2398,0.2295,0,0,0,0,0,0,0,0,0,0,0.2133,0.2202,0.2026,0.2027,0.2144,0.2327,0.2328,0.2291,0.2301,0.2273,0,0.2289,0,0.2373,0.2402,0.2402,0,0,0,0.212,0.2195,0.2116,0.2027,0.2146,0.2327,0.2238,0.2298,0.2309,0.2285,0.2291,0.2297,0.2374,0.2402,0.2402,0.2479,0.2479,0,0,0.211,0.2186,0.2109,0.2122,0.2175,0.2232,0.2244,0.2306,0.2382,0.2292,0.2301,0.2375,0.2402,0.2403,0.2478,0.2479,0,0,0,0.2095,0.218,0.2106,0.2116,0.2179,0.2238,0.2251,0.238,0.2318,0.2302,0.2376,0.2403,0.2403,0.2477,0.2478,0.2552,0,0,0,0.2088,0.217,0.21,0.2166,0.2179,0.2346,0.2325,0.2312,0.2325,0.2375,0.2403,0.2404,0.2477,0.2478,0.2548,0.2595,0,0,0,0.2021,0.2171,0.2152,0.2166,0.2247,0.2345,0.2295,0.2317,0.237,0.2402,0.2404,0.2477,0.2478,0.2546,0.2589,0.2593,0,0,0,0.2138,0.217,0.2156,0.2234,0.2244,0.229,0.2296,0.2386,0.2418,0.2403,0.2477,0.2478,0.2545,0.2586,0.259,0.2444,0.2445,0,0,0.2217,0.2186,0.221,0.2198,0.2268,0.2264,0.2382,0.2425,0.2422,0.2439,0.2443,0.2549,0.2589,0.2592,0.2515,0.2513,0,0,0,0.2257,0.2268,0.2284,0.2346,0.2349,0.2419,0.2471,0.2477,0.2531,0.2455,0.2554,0.2577,0.2576,0.2482,0.2482,0.2484,0.2484,0.2484,0.2484,0.2426,0.2387,0.244,0.241,0.2475,0.2537,0.257,0.2588,0.257,0.2613,0.2639,0.2699,0.2601,0.2599,0.2634,0.2634,0.2634,0.2634,0.2635,0.2472,0.2457,0.2501,0.2539,0.2581,0.2678,0.2714,0.2719,0.2744,0.2724,0.2718,0.2568,0.2602,0.2641,0.2639,0.2639,0.2638,0.2638,0.2637,0.2519,0.2493,0.2555,0.2616,0.2707,0.2764,0.2788,0.2812,0.2841,0.2838,0.269,0.2686,0.2731,0.282,0.282,0.2821,0.2821,0.2821,0.2821,0.2509,0.255,0.2563,0.2657,0.2698,0.2785,0.2832,0.2833,0.28,0.2768,0.2765,0.2761,0.2755,0.2741,0.2825,0.2824,0.2824,0.2823,0.2823,0.2462,0.251,0.2506,0.2543,0.2608,0.2566,0.2687,0.2642,0.2674,0.2628,0.2701,0.2703,0.2658,0.2655,0.2638,0.2691,0.2691,0.2691,0.2691,0.2402,0.2425,0.2379,0.2383,0.2413,0.2437,0.2264,0.2236,0.2337,0.2369,0.2383,0.2296,0.2309,0.224,0.2247,0.2219,0.2163,0.2162,0.2161,0.2312,0.2311,0.2249,0.2286,0.2298,0.224,0.196,0.1767,0.1889,0.2138,0.2273,0.2659,0.2566,0.2572,0.2492,0.2493,0.2459,0,0]},{"header":{"parameterUnit":"m.s-1","parameterCategory":2,"la1":30.2992,"la2":30.254,"lo1":-89.0895,"lo2":-89.0443,"dy":0.0025,"dx":0.0025,"nx":19,"ny":19,"refTime":"2026-04-23T21:00:00:Z","depth":"2","parameterNumber":3,"parameterNumberName":"V-component_of_CURRENTS"},"data":[0,0,0,0.0174,0.0176,0.0239,0.0239,0.0283,0.0283,0,0,0,0,0,0,0,0,0,0,0,0.0153,0.0153,0.0174,0.0176,0.0239,0.0239,0.0283,0.0283,0,0,0,0,0,0,0,0,0,0,0,0.0153,0.0153,0.0153,0.0176,0.0239,0.0239,0.0283,0.0245,0,0,0,0,0,0,0,0,0,0,0.0189,0.0113,0.0153,0.0153,0.0176,0.0239,0.0239,0.0244,0.0248,0.0242,0,0.0251,0,0.0265,0.0285,0.0285,0,0,0,0.0181,0.0109,0.0186,0.0153,0.0177,0.0239,0.0212,0.0247,0.0251,0.0247,0.0252,0.0254,0.0266,0.0285,0.0285,0.0331,0.0331,0,0,0.0177,0.0107,0.0183,0.0188,0.0191,0.021,0.0214,0.0249,0.0216,0.0252,0.0255,0.0266,0.0285,0.0285,0.033,0.0331,0,0,0,0.0164,0.0103,0.0179,0.0186,0.0199,0.0211,0.0216,0.0214,0.0256,0.0255,0.0267,0.0285,0.0285,0.033,0.033,0.0412,0,0,0,0.0162,0.0097,0.0177,0.0128,0.0198,0.0196,0.0178,0.0254,0.0258,0.0267,0.0285,0.0286,0.033,0.033,0.0409,0.0477,0,0,0,0.015,0.0093,0.0116,0.0125,0.0158,0.0197,0.0239,0.0255,0.0265,0.0285,0.0286,0.0329,0.033,0.0406,0.0471,0.0508,0,0,0,0.0059,0.0093,0.0112,0.0159,0.0158,0.0267,0.0239,0.0283,0.0305,0.0285,0.033,0.033,0.0405,0.0467,0.0505,0.0532,0.055,0,0,0.0072,0.009,0.0136,0.0159,0.0259,0.0258,0.0339,0.0344,0.0311,0.0315,0.0317,0.041,0.047,0.0508,0.0575,0.0593,0,0,0,0.0126,0.0166,0.0195,0.0254,0.032,0.0381,0.0386,0.0385,0.0392,0.0326,0.0402,0.0439,0.0459,0.0467,0.0481,0.0334,0.0334,0.0334,0.0334,0.008,0.0171,0.025,0.0365,0.041,0.0464,0.0505,0.0502,0.0453,0.0459,0.0498,0.0578,0.0587,0.0597,0.0472,0.0472,0.0472,0.0473,0.0473,0.0171,0.0252,0.0325,0.0443,0.0509,0.0579,0.0633,0.0615,0.0637,0.0573,0.0587,0.0545,0.0617,0.0479,0.0478,0.0477,0.0476,0.0476,0.0476,0.0179,0.0232,0.0307,0.0467,0.0579,0.0669,0.078,0.0775,0.0732,0.0754,0.0729,0.0728,0.0642,0.0743,0.0744,0.0744,0.0745,0.0745,0.0745,0.0156,0.0235,0.0349,0.0505,0.0609,0.0752,0.0873,0.0911,0.0905,0.0846,0.0845,0.0669,0.066,0.0657,0.0753,0.0751,0.075,0.075,0.0749,0.0226,0.0222,0.0407,0.0515,0.0765,0.0925,0.1008,0.11,0.1092,0.108,0.0884,0.0878,0.0858,0.0846,0.0846,0.0985,0.0985,0.0985,0.0985,0.0245,0.0263,0.0503,0.068,0.0885,0.1023,0.1211,0.1208,0.1115,0.1011,0.1009,0.0944,0.0934,0.0913,0.0899,0.0897,0.105,0.105,0.105,0.0317,0.0379,0.056,0.0731,0.0959,0.1149,0.1318,0.127,0.1078,0.105,0.0987,0.0996,0.0892,0.088,0.0835,0.0818,0.081,0,0]}],[{"header":{"parameterUnit":"m.s-1","parameterCategory":2,"la1":30.2992,"la2":30.254,"lo1":-89.0895,"lo2":-89.0443,"dy":0.0025,"dx":0.0025,"nx":19,"ny":19,"refTime":"2026-04-23T21:00:00:Z","depth":"4","parameterNumber":2,"parameterNumberName":"U-component_of_CURRENTS"},"data":[0,0,0,0.0768,0.0772,0.0984,0.0985,0.1264,0.1266,0,0,0,0,0,0,0,0,0,0,0,0.0687,0.0687,0.0767,0.0772,0.0984,0.0985,0.1263,0.1266,0,0,0,0,0,0,0,0,0,0,0,0.0686,0.0687,0.0688,0.0773,0.0984,0.0985,0.1263,0.1105,0,0,0,0,0,0,0,0,0,0,0.09,0.0822,0.0687,0.0688,0.0774,0.0983,0.0985,0.1098,0.1115,0.1164,0,0.1183,0,0.1228,0.1283,0.1284,0,0,0,0.079,0.0807,0.0859,0.0688,0.0775,0.0983,0.0893,0.1108,0.1127,0.1187,0.1187,0.1198,0.1232,0.1285,0.1286,0.1498,0.1499,0,0,0.0779,0.0739,0.0845,0.087,0.0814,0.0886,0.09,0.1119,0.1136,0.1188,0.1205,0.1237,0.1286,0.1288,0.1498,0.1498,0,0,0,0.0732,0.0731,0.0777,0.0858,0.0895,0.0892,0.0908,0.1127,0.114,0.1208,0.124,0.1288,0.1291,0.1497,0.1498,0.1549,0,0,0,0.0726,0.0703,0.0771,0.0752,0.089,0.1014,0.091,0.1125,0.1151,0.1239,0.1288,0.1294,0.1497,0.1498,0.1547,0.1531,0,0,0,0.068,0.0699,0.0716,0.0749,0.0833,0.1011,0.1039,0.1132,0.117,0.1284,0.1294,0.1497,0.1498,0.1545,0.1529,0.158,0,0,0,0.0643,0.0663,0.0715,0.0762,0.0831,0.0965,0.1038,0.1178,0.1277,0.1289,0.1497,0.1498,0.1544,0.1527,0.1578,0.136,0,0,0,0.0644,0.0662,0.0693,0.0744,0.0836,0.0938,0.1078,0.1245,0.1304,0.1428,0.1433,0.1548,0.1528,0.1579,0.1418,0,0,0,0,0.0679,0.0696,0.0734,0.0807,0.0911,0.1035,0.119,0.1279,0.144,0.1363,0.1553,0.1538,0.1569,0.1437,0.1503,0.1502,0.1502,0.1502,0.1502,0.0615,0.0687,0.0747,0.0846,0.0939,0.1134,0.1255,0.14,0.1465,0.1544,0.1586,0.166,0.1522,0.1612,0.1612,0.1613,0.1613,0.1613,0.1613,0.0618,0.0651,0.0762,0.0853,0.0986,0.1121,0.1346,0.1444,0.1625,0.1635,0.1665,0.1505,0.1618,0.1617,0.1616,0.1616,0.1615,0.1615,0.1615,0.0561,0.0587,0.0677,0.0816,0.0964,0.114,0.1314,0.1503,0.1636,0.1704,0.1587,0.1691,0.1681,0.1747,0.1747,0.1747,0.1748,0.1748,0.1748,0.0464,0.0552,0.0623,0.0779,0.0866,0.1038,0.1321,0.1432,0.1605,0.1593,0.1726,0.1705,0.17,0.1689,0.1751,0.175,0.175,0.1749,0.1749,0.0396,0.0452,0.0542,0.0629,0.0807,0.0916,0.1186,0.1365,0.1469,0.1489,0.1544,0.1553,0.151,0.1511,0.149,0.1496,0.1493,0.1491,0,0.034,0.0371,0.0498,0.0581,0.0675,0.0847,0.0963,0.1125,0.1291,0.1246,0.1443,0.1496,0.1504,0.1447,0.1444,0.1413,0,0,0,0.032,0.0367,0.0426,0.0517,0.061,0.0777,0.099,0.1022,0.1262,0.1299,0.1426,0.1443,0.1586,0.1759,0.1716,0.171,0.1689,0,0]},{"header":{"parameterUnit":"m.s-1","parameterCategory":2,"la1":30.2992,"la2":30.254,"lo1":-89.0895,"lo2":-89.0443,"dy":0.0025,"dx":0.0025,"nx":19,"ny":19,"refTime":"2026-04-23T21:00:00:Z","depth":"4","parameterNumber":3,"parameterNumberName":"V-component_of_CURRENTS"},"data":[0,0,0,0.0445,0.0446,0.047,0.047,0.0463,0.0463,0,0,0,0,0,0,0,0,0,0,0,0.0434,0.0435,0.0445,0.0446,0.047,0.0469,0.0463,0.0463,0,0,0,0,0,0,0,0,0,0,0,0.0434,0.0434,0.0435,0.0446,0.047,0.0469,0.0463,0.0451,0,0,0,0,0,0,0,0,0,0,0.0431,0.0428,0.0434,0.0435,0.0446,0.047,0.0469,0.045,0.0451,0.0445,0,0.0459,0,0.0467,0.0462,0.0462,0,0,0,0.0433,0.0428,0.044,0.0435,0.0446,0.047,0.0455,0.0451,0.0452,0.0446,0.0459,0.0459,0.0467,0.0462,0.0462,0.0469,0.0469,0,0,0.0431,0.0429,0.044,0.0441,0.0465,0.0454,0.0456,0.0452,0.0454,0.0459,0.0459,0.0467,0.0462,0.0462,0.0469,0.0469,0,0,0,0.0436,0.0428,0.0441,0.0441,0.0452,0.0455,0.0457,0.0454,0.0461,0.0459,0.0467,0.0462,0.0462,0.0469,0.0469,0.0475,0,0,0,0.0435,0.0432,0.0441,0.0438,0.0453,0.0459,0.0459,0.0461,0.0461,0.0467,0.0462,0.0462,0.0469,0.0469,0.0474,0.0487,0,0,0,0.0431,0.0432,0.044,0.0438,0.0456,0.0459,0.0465,0.0461,0.0466,0.0462,0.0462,0.0469,0.0469,0.0474,0.0486,0.0487,0,0,0,0.0419,0.0435,0.044,0.046,0.0456,0.0482,0.0465,0.0476,0.0476,0.0462,0.0469,0.0469,0.0474,0.0486,0.0486,0.0506,0,0,0,0.0432,0.0437,0.0449,0.0454,0.0485,0.0477,0.049,0.048,0.0474,0.0465,0.0465,0.0474,0.0486,0.0487,0.0518,0,0,0,0,0.0448,0.0456,0.0468,0.0487,0.0506,0.0508,0.0502,0.0491,0.0479,0.0478,0.0477,0.0484,0.0484,0.0495,0.047,0.047,0.047,0.047,0.047,0.0458,0.047,0.0493,0.0507,0.052,0.0526,0.0517,0.0499,0.0494,0.0486,0.049,0.0499,0.051,0.0487,0.0487,0.0487,0.0487,0.0487,0.0487,0.0473,0.0486,0.0501,0.0525,0.0536,0.0546,0.0527,0.0515,0.0499,0.0493,0.0492,0.0502,0.0487,0.0487,0.0487,0.0487,0.0487,0.0487,0.0487,0.0472,0.0481,0.0502,0.0537,0.0562,0.0567,0.0584,0.0558,0.0517,0.0513,0.0527,0.0506,0.0503,0.0516,0.0516,0.0516,0.0516,0.0516,0.0516,0.0465,0.0486,0.052,0.0553,0.0595,0.0627,0.0625,0.0614,0.057,0.0545,0.0524,0.0509,0.0508,0.0505,0.0517,0.0517,0.0517,0.0517,0.0517,0.0467,0.0487,0.0534,0.0581,0.0665,0.069,0.0693,0.0654,0.0632,0.0595,0.0553,0.0551,0.0552,0.055,0.0549,0.0574,0.0575,0.0575,0,0.0479,0.0485,0.0564,0.0638,0.0706,0.0731,0.0728,0.0702,0.0628,0.062,0.0619,0.0573,0.0571,0.0574,0.0572,0.0572,0,0,0,0.0498,0.0515,0.0573,0.0641,0.0729,0.073,0.0724,0.0703,0.0644,0.0625,0.0583,0.0581,0.0576,0.052,0.0516,0.0515,0.0511,0,0]}]]